Location: Coupvray
(48.8929°N, 2.7967°E)
Time: 19:47:55
(UTC+00:00)

Nadezhda 4 Rocket - Pass Details

Date: 14 July 2020
Orbit: 950 x 991 km, 82.9° (Epoch: 14 August)

Event Time Altitude Azimuth Distance (km) Brightness Sun altitude
Rises 03:04:15 0° 351° (N) 3,712 7.6 -7.8°
Reaches altitude 10° 03:06:48 10° 354° (N) 2,762 7.0 -7.5°
Maximum altitude 03:13:08 73° 79° (E) 1,040 4.4 -6.8°
Drops below altitude 10° 03:19:27 10° 164° (SSE) 2,746 6.1 -6.1°
Sets 03:21:58 0° 166° (SSE) 3,688 6.7 -5.8°
